Regional Weather Roundup
Issued by NWS Huntsville, AL

Home | Current Version | Previous Version | Text Only | Print | Product List | Glossary On
Versions: 1 2 3 4 5 6 7 8 9 10 11 12 13 14 15 16 17 18 19 20 21 22 23 24 25 26 27 28 29 30 31 32 33 34 35 36 37 38 39 40 41 42 43 44 45 46 47 48 49 50
000
ASUS44 KHUN 290710
RWRHUN

WEATHER ROUNDUP FOR THE TENNESSEE VALLEY
NATIONAL WEATHER SERVICE HUNTSVILLE AL
100 AM CST THU JAN 29 2015

ALZ001>004-290800-
NORTHWEST ALABAMA

CITY           SKY/WX    TMP DP  RH WIND       PRES   REMARKS
COURTLAND HCN    N/A     40  32  73 S3          N/A
SHOALS AIRPORT MOCLDY    44  29  55 SE6       30.19F
$$

ALZ005>007-016-290800-
NORTH CENTRAL ALABAMA

CITY           SKY/WX    TMP DP  RH WIND       PRES   REMARKS
CULLMAN AG STN   N/A     43 N/A N/A CALM        N/A
DECATUR AP     PTCLDY    42  27  55 SE6       30.21S
HUNTSVILLE AP  PTCLDY    38  28  67 SE6       30.20F WCI  33
MERIDIANVILLE  MOCLDY    45  19  36 SE8       30.19F
REDSTONE ARSN  PTCLDY    44  25  47 S8        30.19F
VINEMONT AP    FAIR      43  27  52 S9        30.21F
$$

ALZ008>010-290800-
NORTHEAST ALABAMA

CITY           SKY/WX    TMP DP  RH WIND       PRES   REMARKS
ALBERTVILLE    PTCLDY    41  30  65 SE7       30.22S
FORT PAYNE     PTCLDY    37  19  48 CALM      30.23S
SCOTTSBORO AP  PTCLDY    32  28  86 CALM      30.24F
VALLEY HEAD      N/A     37 N/A N/A MISG        N/A
$$

TNZ076-096-097-290800-
SOUTHEASTERN MIDDLE TENNESSEE

CITY           SKY/WX    TMP DP  RH WIND       PRES   REMARKS
TULLAHOMA      CLEAR     39  19  45 CALM      30.17S
WINCHESTER     CLEAR     43  23  45 SE9       30.19F
$$

...SURROUNDING SITES...

CITY           SKY/WX    TMP DP  RH WIND       PRES   REMARKS
ATLANTA        MOCLDY    41  27  57 CALM      30.26R
ANNISTON       PTCLDY    34  30  85 CALM      30.26R
BIRMINGHAM     PTCLDY    39  30  70 CALM      30.26R
CHATTANOOGA    PTCLDY    31  25  78 S3        30.26S
CORINTH        MOCLDY    46  32  57 SE10      30.11F
DALTON         CLEAR     32  27  80 CALM      30.27R
GADSDEN        PTCLDY    30  25  80 CALM      30.26R
GOLDEN TRNGL   MOCLDY    45  30  57 S8        30.17F
HALEYVILLE       N/A     43  30  60 S3        30.21F
JACKSON TN     MOCLDY    50  30  46 S14G22    30.05S
LEWISBURG      FAIR      44  27  51 S12       30.15F
MEMPHIS        PTCLDY    55  35  47 S14       30.05F
MURFREESBORO   FAIR      39  25  58 S7        30.14F WCI  34
NASHVILLE      MOCLDY    44  28  53 S10       30.12F
OXFORD MS      FAIR      50  32  50 S8        30.13R
ROME           CLEAR     31  24  75 CALM      30.27R
SAVANNAH       CLEAR     48  28  46 S15       30.11F
TUPELO         CLOUDY    46  31  55 S10       30.15F
TUSCALOOSA     PTCLDY    37  33  85 CALM      30.24R
$$

...GULF COAST WEATHER...

CITY           SKY/WX    TMP DP  RH WIND       PRES   REMARKS
GULFPORT       CLEAR     43  40  89 CALM      30.23R
PASCAGOULA     PTCLDY    39  38  96 CALM      30.24R FOG
MOBILE         PTCLDY    41  39  93 CALM      30.24R
GULF SHORES    MOSUNNY   42  40  95 CALM      30.23S
PENSACOLA      PTCLDY    54  47  77 SE9       30.22F
DESTIN         PTCLDY    51  42  71 E7        30.25S
PANAMA CITY    PTCLDY    41  40  96 E5        30.27F
APPALACHICOLA  CLEAR     43  38  82 NE6       30.28F
$$




USA.gov is the U.S. government's official web portal to all federal, state and local government web resources and services.